MAH9015 LFMN-LHBP

Flight info

Callsign MAH9015
Flight time 1h 28m
Altitude 38000
Route BASIP DCT ANAKI DCT EKPAL DCT BARPI DCT MAGAM DCT KOPRY DCT ULZAK
Aircraft B736/M-SDE2E3FGHIRWXY/LB1

Departure

Time 2026-05-06 12:41
Airport Nice-Côte d'Azur Airport (LFMN)

Arrival

Time 2026-05-06 14:09
Airport Budapest Liszt Ferenc International Airport (LHBP)
Time Latitude Longitude Altitude Speed Heading
2026-05-06 12:19 43.66225 7.20660 21 ft 0 kts 262°
2026-05-06 12:31 43.66226 7.20674 22 ft 2 kts 258°
2026-05-06 12:32 43.66230 7.20696 23 ft 2 kts 257°
2026-05-06 12:32 43.66234 7.20718 22 ft 2 kts 251°
2026-05-06 12:32 43.66240 7.20739 24 ft 2 kts 234°
2026-05-06 12:32 43.66253 7.20753 23 ft 2 kts 182°
2026-05-06 12:33 43.66259 7.20753 22 ft 0 kts 173°
2026-05-06 12:35 43.66244 7.20759 21 ft 5 kts 162°
2026-05-06 12:35 43.66207 7.20773 21 ft 5 kts 169°
2026-05-06 12:36 43.66170 7.20782 23 ft 5 kts 169°
2026-05-06 12:36 43.66134 7.20791 21 ft 5 kts 169°
2026-05-06 12:36 43.66095 7.20800 21 ft 7 kts 171°
2026-05-06 12:36 43.66028 7.20815 21 ft 12 kts 172°
2026-05-06 12:37 43.65967 7.20881 21 ft 12 kts 94°
2026-05-06 12:37 43.66012 7.20978 21 ft 13 kts 57°
2026-05-06 12:37 43.65995 7.21070 21 ft 11 kts 162°
2026-05-06 12:37 43.65971 7.21165 22 ft 16 kts 53°
2026-05-06 12:38 43.66064 7.21296 21 ft 23 kts 45°
2026-05-06 12:38 43.66178 7.21457 21 ft 23 kts 46°
2026-05-06 12:38 43.66290 7.21609 21 ft 22 kts 44°
2026-05-06 12:38 43.66401 7.21757 21 ft 22 kts 44°
2026-05-06 12:39 43.66504 7.21905 21 ft 21 kts 46°
2026-05-06 12:39 43.66607 7.22046 21 ft 21 kts 44°
2026-05-06 12:39 43.66707 7.22183 21 ft 20 kts 45°
2026-05-06 12:39 43.66802 7.22317 21 ft 19 kts 52°
2026-05-06 12:40 43.66759 7.22469 20 ft 19 kts 138°
2026-05-06 12:40 43.66658 7.22438 20 ft 17 kts 224°
2026-05-06 12:40 43.66375 7.22051 22 ft 103 kts 225°
2026-05-06 12:40 43.65712 7.21111 305 ft 159 kts 225°
2026-05-06 12:41 43.64900 7.19906 1310 ft 171 kts 225°
2026-05-06 12:41 43.64091 7.18772 2735 ft 162 kts 225°
2026-05-06 12:41 43.63270 7.17705 3784 ft 171 kts 226°
2026-05-06 12:41 43.62217 7.16621 4260 ft 208 kts 210°
2026-05-06 12:42 43.60730 7.15988 4790 ft 237 kts 191°
2026-05-06 12:42 43.58979 7.16110 5433 ft 268 kts 169°
2026-05-06 12:42 43.57210 7.17114 6501 ft 280 kts 156°
2026-05-06 12:42 43.55703 7.18836 7670 ft 290 kts 127°
2026-05-06 12:43 43.54902 7.21412 8825 ft 298 kts 108°
2026-05-06 12:43 43.54370 7.24208 9871 ft 305 kts 107°
2026-05-06 12:43 43.53877 7.26896 10607 ft 319 kts 107°
2026-05-06 12:43 43.53555 7.30017 11245 ft 340 kts 89°
2026-05-06 12:44 43.54084 7.33223 12202 ft 347 kts 70°
2026-05-06 12:44 43.54946 7.36351 13233 ft 352 kts 70°
2026-05-06 12:44 43.55828 7.39529 14105 ft 359 kts 70°
2026-05-06 12:44 43.56807 7.42743 14831 ft 370 kts 60°
2026-05-06 12:45 43.58320 7.45594 15595 ft 377 kts 50°
2026-05-06 12:45 43.60002 7.48419 16381 ft 385 kts 49°
2026-05-06 12:46 43.65608 7.57856 18764 ft 411 kts 51°
2026-05-06 12:46 43.67410 7.60958 19507 ft 416 kts 51°
2026-05-06 12:46 43.69229 7.64106 20284 ft 421 kts 51°
2026-05-06 12:46 43.71066 7.67290 21052 ft 426 kts 51°
2026-05-06 12:47 43.72927 7.70517 21801 ft 432 kts 52°
2026-05-06 12:47 43.74843 7.73739 22524 ft 438 kts 49°
2026-05-06 12:47 43.76879 7.76901 23270 ft 443 kts 48°
2026-05-06 12:47 43.78964 7.80078 23912 ft 448 kts 48°
2026-05-06 12:48 43.80345 7.82211 24329 ft 451 kts 49°
2026-05-06 12:48 43.82430 7.85482 24963 ft 456 kts 49°
2026-05-06 12:48 43.84528 7.88802 25580 ft 461 kts 50°
2026-05-06 12:48 43.86649 7.92162 26198 ft 466 kts 50°
2026-05-06 12:49 43.88785 7.95551 26903 ft 468 kts 51°
2026-05-06 12:49 43.90694 7.99229 27440 ft 472 kts 61°
2026-05-06 12:49 43.92354 8.03186 27977 ft 477 kts 64°
2026-05-06 12:49 43.93939 8.07245 28572 ft 481 kts 65°
2026-05-06 12:50 43.95522 8.11359 29115 ft 486 kts 65°
2026-05-06 12:50 43.97136 8.15505 29592 ft 491 kts 65°
2026-05-06 12:50 43.98789 8.19680 30125 ft 495 kts 64°
2026-05-06 12:50 44.00473 8.23870 30614 ft 498 kts 64°
2026-05-06 12:51 44.02174 8.28068 31089 ft 501 kts 64°
2026-05-06 12:51 44.03890 8.32294 31525 ft 504 kts 64°
2026-05-06 12:51 44.05616 8.36546 31949 ft 507 kts 64°
2026-05-06 12:51 44.07347 8.40822 32455 ft 507 kts 64°
2026-05-06 12:52 44.09074 8.45096 33029 ft 505 kts 64°
2026-05-06 12:52 44.10788 8.49350 33632 ft 503 kts 64°
2026-05-06 12:52 44.12493 8.53591 34141 ft 501 kts 64°
2026-05-06 12:52 44.14192 8.57824 34618 ft 500 kts 64°
2026-05-06 12:53 44.15882 8.62041 35097 ft 498 kts 64°
2026-05-06 12:53 44.17565 8.66246 35568 ft 496 kts 63°
2026-05-06 12:53 44.19231 8.70440 36015 ft 494 kts 65°
2026-05-06 12:53 44.20638 8.74774 36437 ft 489 kts 75°
2026-05-06 12:54 44.21630 8.79285 36883 ft 484 kts 78°
2026-05-06 12:54 44.22523 8.83793 37321 ft 482 kts 78°
2026-05-06 12:54 44.23388 8.88299 37760 ft 480 kts 78°
2026-05-06 12:54 44.24255 8.92808 37883 ft 485 kts 78°
2026-05-06 12:55 44.25140 8.97358 37878 ft 486 kts 78°
2026-05-06 12:55 44.26920 9.06313 37863 ft 477 kts 77°
2026-05-06 12:56 44.28704 9.15204 37882 ft 476 kts 77°
2026-05-06 12:56 44.30480 9.24098 37885 ft 476 kts 77°
2026-05-06 12:57 44.32248 9.33001 37887 ft 476 kts 78°
2026-05-06 12:57 44.34009 9.41912 37880 ft 476 kts 78°
2026-05-06 12:58 44.35766 9.50843 37880 ft 477 kts 77°
2026-05-06 12:58 44.37519 9.59787 37882 ft 477 kts 78°
2026-05-06 12:59 44.39264 9.68739 37882 ft 478 kts 78°
2026-05-06 12:59 44.41004 9.77707 37871 ft 478 kts 78°
2026-05-06 13:00 44.42736 9.86674 37874 ft 478 kts 78°
2026-05-06 13:00 44.44462 9.95656 37875 ft 478 kts 78°
2026-05-06 13:01 44.46181 10.04637 37883 ft 477 kts 78°
2026-05-06 13:01 44.47891 10.13605 37892 ft 476 kts 78°
2026-05-06 13:02 44.50313 10.22268 37899 ft 480 kts 66°
2026-05-06 13:02 44.53287 10.30642 37851 ft 480 kts 65°
2026-05-06 13:03 44.56250 10.38950 37848 ft 480 kts 66°
2026-05-06 13:03 44.59186 10.47350 37869 ft 479 kts 66°
2026-05-06 13:04 44.62091 10.55769 37876 ft 479 kts 66°
2026-05-06 13:04 44.64985 10.64204 37852 ft 479 kts 66°
2026-05-06 13:05 44.67870 10.72633 37865 ft 479 kts 66°
2026-05-06 13:05 44.70748 10.81064 37873 ft 478 kts 66°
2026-05-06 13:06 44.73612 10.89480 37870 ft 477 kts 66°
2026-05-06 13:06 44.76468 10.97896 37871 ft 476 kts 67°
2026-05-06 13:07 44.79311 11.06304 37879 ft 475 kts 67°
2026-05-06 13:07 44.82143 11.14703 37879 ft 475 kts 67°
2026-05-06 13:08 44.84967 11.23106 37884 ft 474 kts 67°
2026-05-06 13:08 44.87783 11.31512 37881 ft 474 kts 67°
2026-05-06 13:09 44.90594 11.39929 37887 ft 475 kts 67°
2026-05-06 13:09 44.93401 11.48363 37893 ft 475 kts 67°
2026-05-06 13:10 44.96205 11.56812 37887 ft 475 kts 67°
2026-05-06 13:10 44.99004 11.65274 37902 ft 475 kts 67°
2026-05-06 13:11 45.01777 11.73685 37894 ft 476 kts 67°
2026-05-06 13:11 45.04567 11.82173 37929 ft 477 kts 67°
2026-05-06 13:12 45.07359 11.90698 37903 ft 477 kts 67°
2026-05-06 13:12 45.10135 11.99196 37914 ft 475 kts 67°
2026-05-06 13:13 45.12901 12.07694 37904 ft 475 kts 67°
2026-05-06 13:13 45.15652 12.16175 37905 ft 473 kts 67°
2026-05-06 13:14 45.18392 12.24647 37909 ft 472 kts 67°
2026-05-06 13:14 45.21119 12.33108 37914 ft 472 kts 67°
2026-05-06 13:15 45.23839 12.41575 37908 ft 472 kts 67°
2026-05-06 13:15 45.26554 12.50055 37917 ft 472 kts 67°
2026-05-06 13:16 45.29269 12.58560 37910 ft 473 kts 67°
2026-05-06 13:16 45.31981 12.67086 37913 ft 474 kts 68°
2026-05-06 13:17 45.34672 12.75571 37907 ft 474 kts 68°
2026-05-06 13:17 45.37377 12.84129 37907 ft 474 kts 68°
2026-05-06 13:18 45.40074 12.92692 37904 ft 474 kts 68°
2026-05-06 13:18 45.42760 13.01247 37906 ft 473 kts 68°
2026-05-06 13:19 45.45436 13.09800 37909 ft 472 kts 68°
2026-05-06 13:19 45.48098 13.18335 37918 ft 471 kts 68°
2026-05-06 13:20 45.50750 13.26869 37928 ft 470 kts 68°
2026-05-06 13:20 45.53391 13.35397 37929 ft 470 kts 68°
2026-05-06 13:21 45.56020 13.43911 37935 ft 469 kts 68°
2026-05-06 13:21 45.58615 13.52452 37932 ft 468 kts 71°
2026-05-06 13:22 45.60450 13.61315 37936 ft 465 kts 78°
2026-05-06 13:22 45.62040 13.70260 37936 ft 464 kts 78°
2026-05-06 13:23 45.63642 13.79197 37940 ft 464 kts 78°
2026-05-06 13:23 45.65278 13.88123 37949 ft 464 kts 78°
2026-05-06 13:24 45.66923 13.97047 37946 ft 464 kts 78°
2026-05-06 13:24 45.68563 14.05973 37954 ft 465 kts 78°
2026-05-06 13:25 45.70197 14.14920 37944 ft 464 kts 78°
2026-05-06 13:25 45.71818 14.23841 37960 ft 463 kts 78°
2026-05-06 13:26 45.73418 14.32692 37948 ft 462 kts 78°
2026-05-06 13:26 45.75018 14.41588 37962 ft 461 kts 78°
2026-05-06 13:27 45.76613 14.50495 37944 ft 462 kts 78°
2026-05-06 13:27 45.78196 14.59384 37951 ft 460 kts 78°
2026-05-06 13:28 45.79748 14.68139 37941 ft 459 kts 78°
2026-05-06 13:28 45.81312 14.77007 37941 ft 458 kts 78°
2026-05-06 13:29 45.82867 14.85865 37942 ft 458 kts 78°
2026-05-06 13:29 45.84413 14.94720 37941 ft 458 kts 78°
2026-05-06 13:30 45.85954 15.03588 37937 ft 458 kts 78°
2026-05-06 13:30 45.87490 15.12471 37944 ft 459 kts 78°
2026-05-06 13:31 45.89024 15.21393 37936 ft 461 kts 78°
2026-05-06 13:31 45.90555 15.30334 37927 ft 461 kts 78°
2026-05-06 13:32 45.92078 15.39277 37938 ft 461 kts 78°
2026-05-06 13:32 45.93594 15.48224 37934 ft 461 kts 78°
2026-05-06 13:33 45.95090 15.57102 37941 ft 460 kts 78°
2026-05-06 13:33 45.96590 15.66037 37935 ft 460 kts 78°
2026-05-06 13:34 45.98204 15.74936 37940 ft 460 kts 75°
2026-05-06 13:34 46.00133 15.83708 37930 ft 460 kts 73°
2026-05-06 13:35 46.02094 15.92471 37928 ft 460 kts 73°
2026-05-06 13:35 46.04014 16.01253 37925 ft 460 kts 74°
2026-05-06 13:36 46.05905 16.10045 37928 ft 460 kts 74°
2026-05-06 13:36 46.07783 16.18838 37923 ft 460 kts 74°
2026-05-06 13:37 46.09657 16.27649 37919 ft 460 kts 74°
2026-05-06 13:37 46.11529 16.36478 37916 ft 462 kts 74°
2026-05-06 13:38 46.13397 16.45329 37921 ft 462 kts 74°
2026-05-06 13:38 46.14960 16.52758 37916 ft 462 kts 75°
2026-05-06 13:39 46.16816 16.61621 37913 ft 462 kts 74°
2026-05-06 13:39 46.18666 16.70495 37911 ft 462 kts 74°
2026-05-06 13:40 46.20807 16.80815 37918 ft 462 kts 74°
2026-05-06 13:40 46.22178 16.87442 37918 ft 462 kts 74°
2026-05-06 13:41 46.24194 16.96175 37900 ft 462 kts 65°
2026-05-06 13:41 46.25734 17.00246 37743 ft 463 kts 56°
2026-05-06 13:41 46.27550 17.04110 37193 ft 464 kts 54°
2026-05-06 13:41 46.29442 17.07949 36609 ft 462 kts 53°
2026-05-06 13:42 46.31294 17.11666 36010 ft 462 kts 53°
2026-05-06 13:42 46.33167 17.15446 35361 ft 463 kts 53°
2026-05-06 13:42 46.35031 17.19248 34745 ft 464 kts 53°
2026-05-06 13:42 46.36877 17.23054 34289 ft 460 kts 53°
2026-05-06 13:43 46.38703 17.26851 33804 ft 458 kts 53°
2026-05-06 13:43 46.40512 17.30632 33274 ft 455 kts 53°
2026-05-06 13:43 46.42307 17.34392 32787 ft 452 kts 54°
2026-05-06 13:43 46.44084 17.38125 32314 ft 448 kts 53°
2026-05-06 13:44 46.45846 17.41829 31862 ft 445 kts 53°
2026-05-06 13:44 46.47597 17.45512 31405 ft 442 kts 53°
2026-05-06 13:44 46.49336 17.49174 30979 ft 439 kts 54°
2026-05-06 13:44 46.51059 17.52807 30542 ft 436 kts 54°
2026-05-06 13:45 46.52771 17.56421 30120 ft 433 kts 54°
2026-05-06 13:45 46.56160 17.63588 29146 ft 427 kts 54°
2026-05-06 13:45 46.57829 17.67125 28710 ft 422 kts 54°
2026-05-06 13:46 46.59483 17.70634 28250 ft 419 kts 54°
2026-05-06 13:46 46.61120 17.74111 27800 ft 415 kts 54°
2026-05-06 13:46 46.62745 17.77567 27359 ft 412 kts 54°
2026-05-06 13:46 46.64354 17.80994 26925 ft 409 kts 54°
2026-05-06 13:47 46.65950 17.84397 26500 ft 405 kts 54°
2026-05-06 13:47 46.67533 17.87777 26079 ft 402 kts 54°
2026-05-06 13:47 46.69105 17.91136 25658 ft 400 kts 54°
2026-05-06 13:47 46.70663 17.94469 25246 ft 397 kts 54°
2026-05-06 13:48 46.72209 17.97782 24836 ft 394 kts 55°
2026-05-06 13:48 46.73747 18.01079 24426 ft 392 kts 55°
2026-05-06 13:48 46.75275 18.04361 24024 ft 390 kts 55°
2026-05-06 13:48 46.76793 18.07625 23603 ft 388 kts 55°
2026-05-06 13:49 46.78306 18.10881 23142 ft 386 kts 56°
2026-05-06 13:49 46.79802 18.14107 22827 ft 380 kts 55°
2026-05-06 13:49 46.81265 18.17264 22816 ft 371 kts 56°
2026-05-06 13:49 46.82688 18.20338 22791 ft 358 kts 56°
2026-05-06 13:50 46.84050 18.23284 22702 ft 342 kts 56°
2026-05-06 13:50 46.85364 18.26129 22350 ft 334 kts 56°
2026-05-06 13:50 46.86635 18.28883 21804 ft 331 kts 56°
2026-05-06 13:50 46.87947 18.31728 20733 ft 346 kts 56°
2026-05-06 13:51 46.89319 18.34706 20066 ft 354 kts 56°
2026-05-06 13:51 46.90646 18.37590 19659 ft 353 kts 56°
2026-05-06 13:51 46.92014 18.40568 19265 ft 352 kts 56°
2026-05-06 13:51 46.93375 18.43534 18885 ft 351 kts 56°
2026-05-06 13:52 46.94732 18.46492 18505 ft 349 kts 57°
2026-05-06 13:52 46.96083 18.49440 18107 ft 348 kts 57°
2026-05-06 13:52 46.97428 18.52380 17672 ft 347 kts 57°
2026-05-06 13:52 46.98775 18.55305 17255 ft 345 kts 54°
2026-05-06 13:53 47.00474 18.57741 16933 ft 340 kts 33°
2026-05-06 13:53 47.02461 18.59576 16598 ft 337 kts 30°
2026-05-06 13:53 47.04471 18.61312 16229 ft 334 kts 29°
2026-05-06 13:53 47.06478 18.63034 15853 ft 333 kts 30°
2026-05-06 13:54 47.08465 18.64758 15476 ft 332 kts 30°
2026-05-06 13:54 47.10444 18.66494 15097 ft 331 kts 30°
2026-05-06 13:54 47.12411 18.68233 14711 ft 330 kts 30°
2026-05-06 13:54 47.14372 18.69975 14337 ft 329 kts 30°
2026-05-06 13:55 47.16329 18.71718 13951 ft 329 kts 30°
2026-05-06 13:55 47.18263 18.73493 13538 ft 328 kts 36°
2026-05-06 13:55 47.19809 18.75935 13122 ft 327 kts 57°
2026-05-06 13:55 47.21012 18.78752 12750 ft 324 kts 59°
2026-05-06 13:56 47.22177 18.81569 12487 ft 321 kts 59°
2026-05-06 13:56 47.23344 18.84358 12220 ft 319 kts 59°
2026-05-06 13:56 47.24429 18.86922 11920 ft 316 kts 59°
2026-05-06 13:56 47.25594 18.89662 11569 ft 315 kts 59°
2026-05-06 13:57 47.26757 18.92395 11200 ft 314 kts 59°
2026-05-06 13:57 47.27914 18.95120 10838 ft 314 kts 59°
2026-05-06 13:57 47.29072 18.97850 10477 ft 314 kts 59°
2026-05-06 13:57 47.30227 19.00569 10145 ft 312 kts 58°
2026-05-06 13:58 47.31589 19.03006 9993 ft 304 kts 44°
2026-05-06 13:58 47.33142 19.05069 9745 ft 300 kts 41°
2026-05-06 13:58 47.34711 19.07081 9431 ft 298 kts 41°
2026-05-06 13:58 47.36296 19.09031 9106 ft 296 kts 31°
2026-05-06 13:59 47.38171 19.10058 8997 ft 282 kts
2026-05-06 13:59 47.40077 19.09871 8739 ft 272 kts 339°
2026-05-06 13:59 47.41751 19.08696 8451 ft 263 kts 318°
2026-05-06 13:59 47.43050 19.06850 8178 ft 257 kts 307°
2026-05-06 14:00 47.44246 19.04895 7877 ft 257 kts 307°
2026-05-06 14:00 47.45438 19.02932 7583 ft 256 kts 307°
2026-05-06 14:00 47.46629 19.00969 7289 ft 257 kts 307°
2026-05-06 14:00 47.47754 18.99127 7008 ft 257 kts 307°
2026-05-06 14:01 47.48864 18.97314 6729 ft 258 kts 307°
2026-05-06 14:01 47.50071 18.95346 6444 ft 258 kts 307°
2026-05-06 14:01 47.51277 18.93381 6139 ft 258 kts 306°
2026-05-06 14:01 47.52398 18.91552 5883 ft 259 kts 306°
2026-05-06 14:02 47.53593 18.89606 5746 ft 252 kts 306°
2026-05-06 14:02 47.54817 18.87794 5641 ft 248 kts 320°
2026-05-06 14:02 47.56405 18.86886 5601 ft 246 kts 349°
2026-05-06 14:02 47.58082 18.87100 5534 ft 240 kts 17°
2026-05-06 14:03 47.59517 18.88288 5377 ft 236 kts 44°
2026-05-06 14:03 47.60444 18.90201 5290 ft 224 kts 71°
2026-05-06 14:03 47.60841 18.92423 5186 ft 219 kts 91°
2026-05-06 14:03 47.60737 18.94606 5095 ft 218 kts 105°
2026-05-06 14:04 47.60211 18.96664 4895 ft 212 kts 131°
2026-05-06 14:04 47.59332 18.98442 4624 ft 218 kts 132°
2026-05-06 14:04 47.58373 19.00217 4332 ft 223 kts 136°
2026-05-06 14:04 47.57328 19.01955 4037 ft 229 kts 137°
2026-05-06 14:05 47.56248 19.03696 3741 ft 230 kts 137°
2026-05-06 14:05 47.55171 19.05431 3441 ft 225 kts 138°
2026-05-06 14:05 47.54218 19.06972 3180 ft 213 kts 137°
2026-05-06 14:05 47.53242 19.08549 2900 ft 201 kts 138°
2026-05-06 14:06 47.52321 19.10033 2629 ft 189 kts 137°
2026-05-06 14:06 47.51474 19.11403 2415 ft 175 kts 139°
2026-05-06 14:06 47.50680 19.12688 2179 ft 163 kts 140°
2026-05-06 14:06 47.49947 19.13865 1970 ft 152 kts 140°
2026-05-06 14:07 47.49250 19.14996 1801 ft 140 kts 140°
2026-05-06 14:07 47.48627 19.16002 1600 ft 132 kts 140°
2026-05-06 14:07 47.48033 19.16965 1435 ft 126 kts 141°
2026-05-06 14:07 47.47422 19.17944 1269 ft 135 kts 140°
2026-05-06 14:08 47.46778 19.18989 1066 ft 138 kts 142°
2026-05-06 14:08 47.46139 19.20024 880 ft 134 kts 143°
2026-05-06 14:08 47.45509 19.21044 681 ft 136 kts 139°
2026-05-06 14:08 47.44882 19.22061 508 ft 133 kts 138°
2026-05-06 14:09 47.44287 19.23023 451 ft 110 kts 131°
2026-05-06 14:09 47.43926 19.23609 455 ft 47 kts 133°
2026-05-06 14:09 47.43761 19.23890 454 ft 33 kts 124°
2026-05-06 14:09 47.43686 19.24167 454 ft 28 kts 102°
2026-05-06 14:10 47.43634 19.24431 456 ft 26 kts 115°
2026-05-06 14:10 47.43545 19.24626 456 ft 22 kts 132°
2026-05-06 14:10 47.43443 19.24790 456 ft 21 kts 133°
2026-05-06 14:10 47.43352 19.24937 456 ft 17 kts 132°
2026-05-06 14:11 47.43280 19.25054 456 ft 15 kts 132°
2026-05-06 14:11 47.43233 19.25187 456 ft 15 kts 89°
2026-05-06 14:11 47.43285 19.25309 456 ft 14 kts 44°
2026-05-06 14:11 47.43356 19.25405 456 ft 13 kts 42°
2026-05-06 14:12 47.43424 19.25496 455 ft 13 kts 42°
2026-05-06 14:12 47.43490 19.25584 455 ft 13 kts 42°
2026-05-06 14:12 47.43545 19.25680 456 ft 12 kts 78°
2026-05-06 14:12 47.43501 19.25784 456 ft 12 kts 129°
2026-05-06 14:13 47.43453 19.25883 456 ft 12 kts 132°
2026-05-06 14:13 47.43427 19.25981 456 ft 12 kts 50°
2026-05-06 14:13 47.43484 19.26060 456 ft 11 kts 43°
2026-05-06 14:13 47.43540 19.26137 456 ft 11 kts 43°
2026-05-06 14:14 47.43544 19.26233 454 ft 11 kts 127°
2026-05-06 14:14 47.43495 19.26298 456 ft 2 kts 176°
2026-05-06 14:14 47.43472 19.26276 454 ft 6 kts 220°
2026-05-06 14:14 47.43453 19.26251 456 ft 0 kts 223°